This is the latest recevied weather packets stored in our database for station/object LZ1HCO-25. If no packets are shown the sender has not sent any weather packets the latest 10 day(s).
| Time | Temp. | Humidity | Pressure | Rain* | Wind** | Luminosity | Snow |
|---|---|---|---|---|---|---|---|
| 1777727375 | 15° C | 57% | 973 hPa | - | - | 0 W/m² | - |
| 1777727063 | 16.11° C | 62% | 973 hPa | - | - | 0 W/m² | - |
| 1777726752 | 16.67° C | 56% | 973 hPa | - | - | 0 W/m² | - |
| 1777726441 | 16.67° C | 55% | 973 hPa | - | - | 0 W/m² | - |
| 1777726129 | 15.56° C | 62% | 973 hPa | - | - | 0 W/m² | - |
| 1777725818 | 15.56° C | 63% | 973 hPa | - | - | 0 W/m² | - |
| 1777725506 | 14.44° C | 61% | 973 hPa | - | - | 0 W/m² | - |
| 1777725195 | 15° C | 63% | 973 hPa | - | - | 0 W/m² | - |
| 1777724884 | 15.56° C | 64% | 974 hPa | - | - | 0 W/m² | - |
| 1777724572 | 16.11° C | 64% | 974 hPa | - | - | 0 W/m² | - |
| 1777724261 | 15.56° C | 66% | 974 hPa | - | - | 0 W/m² | - |
| 1777723950 | 14.44° C | 69% | 974 hPa | - | - | 0 W/m² | - |
| 1777723638 | 13.89° C | 79% | 974 hPa | - | - | 0 W/m² | - |
| 1777723327 | 13.33° C | 76% | 974 hPa | - | - | 0 W/m² | - |
| 1777723016 | 13.89° C | 70% | 974 hPa | - | - | 0 W/m² | - |
| 1777722704 | 13.33° C | 67% | 974 hPa | - | - | 0 W/m² | - |
| 1777722393 | 13.89° C | 65% | 974 hPa | - | - | 0 W/m² | - |
| 1777722082 | 14.44° C | 64% | 974 hPa | - | - | 0 W/m² | - |
| 1777721770 | 14.44° C | 63% | 974 hPa | - | - | 0 W/m² | - |
| 1777721459 | 15° C | 67% | 974 hPa | - | - | 0 W/m² | - |
| 1777721147 | 15.56° C | 71% | 974 hPa | - | - | 0 W/m² | - |
| 1777720836 | 13.89° C | 67% | 974 hPa | - | - | 0 W/m² | - |
| 1777720525 | 13.89° C | 66% | 974 hPa | - | - | 0 W/m² | - |
| 1777720213 | 13.89° C | 62% | 974 hPa | - | - | 0 W/m² | - |
| 1777719902 | 13.89° C | 65% | 974 hPa | - | - | 0 W/m² | - |
* Rain since midnight (hover to see other rain measurements)
** Current wind speed in m/s (hover to see current wind gust speed)